Volver al catálogo

STARLINK-35178

ActivoComunicacionesSSO
NORAD 65610·PAYLOAD·🇺🇸 United States

Lanzado Sep 13, 2025 desde Cape Canaveral Space Force Station

Loading…

Próximos Pases (próximas 24 horas)

TLE

ActualizadoSource: CelesTrak SupGP

Época: Sep 14, 2026, 20:54 UTC

1 65610C 25207U   26257.87131944  .02238300  00000+0  11130+0 0  2572
2 65610  97.2842 320.5474 0001454  81.8810 138.2588 15.16587975    17

Sigue STARLINK-35178 en tiempo real con AllMySat

Download on the App Store